IRIDIUM 33 DEB, 35850

Orbit data source: Space-Track

IRIDIUM 33 DEB, 35850 is space debris in LEO originally from a launch on Sun, 14 Sep 1997 UTC launched from the Tyuratam Missile And Space Complex (TTMTR). The debris from Iridium 33, an American commercial communications satellite, has been tracked extensively since its accidental collision with the defunct Russian satellite Cosmos 2251 in 2009. This event, occurring at high speed in low Earth orbit (LEO), generated thousands of pieces of space debris, significantly increasing the risk of further collisions. The Iridium 33 debris cloud has impacted space traffic management and orbital debris mitigation strategies, making it a subject of ongoing study in space situational awareness.

Loading next visibility...
Identifier
35850, 1997-051TA
Orbit
LEO
Country
Flag of USUS
Related business
Manufacturer
Unknown
Mission
Spacecraft
Bus & Motor
Unknown
Mass
Unknown
Launch date (UTC)
1997-09-14 (29 years ago)
Launch vehicle
Unknown
Launch site
Tyuratam Missile And Space Complex (TTMTR)
Object type
Payload
Rocket body
Debris
Shape & HBR
Unknown shape, 0.1 m
Radar Cross Section
Small (<0.1 m²)

Expand to show TLE details & history
Last TLE update: 2 days ago

TLE from 2 days ago
0 IRIDIUM 33 DEB
1 35850U 97051TA  26118.18159620  .00012039  00000-0  14989-2 0  9991
2 35850  86.3435 281.9721 0011004  88.1961 272.0522 14.82362997733768
Epoch: 2026-04-28T04:21Z
TLE epoch observation values (Epoch: 2026-04-28T04:21:29.911Z)
Latitude
Longitude
0.43688°
Altitude
624.726 km
Speed
7.546 km/s
True Right ascension
18h 47m 53s
True Declination
0° 00' 00"
Sunlit
Object was in daylight at epoch
Visualization orbit readout
Latitude
Unknown
Longitude
Unknown
Altitude
Unknown
Speed
Unknown
Apparent Right ascension
Unknown
Apparent Declination
Unknown
Sunlit
N/A
Visualization observer readout
Local Sidereal Time
07:35:39
Azimuth
Unknown
Elevation
Unknown
Doppler factor
Unknown
Orbital elements
Apogee altitude
626.472 km
Perigee altitude
611.074 km
Semi-major axis
6,996.91 km
Eccentricity
0.0011
Inclination
86.3435°
RAAN
281.9721°
Arg. of periapsis
88.1961°
True anomaly
271.92618°
Mean anomaly
272.0522°
Eccentric anomaly
271.98919°
Mean motion
3.70838 °/min
Orbital period
97.08 mins
BSTAR
0.0014989
Loading maneuver chart data...
Computing Atmospheric mass density...

Documentation

Showing up to 5 results
|